owner,sensor,date,latitude,longitude,vertical_datum,sea_water_practical_salinity,qcFlag 
COMPS,ioos:station:USF.COMPS:EGK:1,2009-08-01T00:00:00Z,27.6010,-82.7510,1.0,23.526,1111122 
COMPS,ioos:station:USF.COMPS:EGK:1,2009-08-01T00:06:00Z,27.6010,-82.7510,1.0,23.342,1111122 
COMPS,ioos:station:USF.COMPS:EGK:1,2009-08-01T00:12:00Z,27.6010,-82.7510,1.0,23.265,1111122 
COMPS,ioos:station:USF.COMPS:EGK:1,2009-08-01T00:18:00Z,27.6010,-82.7510,1.0,23.471,1111122 
COMPS,ioos:station:USF.COMPS:EGK:1,2009-08-01T00:24:00Z,27.6010,-82.7510,1.0,22.541,1111122 
COMPS,ioos:station:USF.COMPS:EGK:1,2009-08-01T00:30:00Z,27.6010,-82.7510,1.0,22.73,1111122 
COMPS,ioos:station:USF.COMPS:EGK:1,2009-08-01T00:36:00Z,27.6010,-82.7510,1.0,22.596,1111122 
COMPS,ioos:station:USF.COMPS:EGK:1,2009-08-01T00:42:00Z,27.6010,-82.7510,1.0,23.256,1111122 
COMPS,ioos:station:USF.COMPS:EGK:1,2009-08-01T00:48:00Z,27.6010,-82.7510,1.0,22.961,1111122 
COMPS,ioos:station:USF.COMPS:EGK:1,2009-08-01T00:54:00Z,27.6010,-82.7510,1.0,22.697,1111122 
COMPS,ioos:station:USF.COMPS:EGK:1,2009-08-01T01:00:00Z,27.6010,-82.7510,1.0,22.585,1111122 
COMPS,ioos:station:USF.COMPS:EGK:1,2009-08-01T01:06:00Z,27.6010,-82.7510,1.0,22.739,1111122 
COMPS,ioos:station:USF.COMPS:EGK:1,2009-08-01T01:12:00Z,27.6010,-82.7510,1.0,22.423,1111122 
COMPS,ioos:station:USF.COMPS:EGK:1,2009-08-01T01:18:00Z,27.6010,-82.7510,1.0,23.176,1111122 
COMPS,ioos:station:USF.COMPS:EGK:1,2009-08-01T01:24:00Z,27.6010,-82.7510,1.0,23.228,1111122 
COMPS,ioos:station:USF.COMPS:EGK:1,2009-08-01T01:30:00Z,27.6010,-82.7510,1.0,23.907,1111122 
COMPS,ioos:station:USF.COMPS:EGK:1,2009-08-01T01:36:00Z,27.6010,-82.7510,1.0,23.689,1111122 
COMPS,ioos:station:USF.COMPS:EGK:1,2009-08-01T01:42:00Z,27.6010,-82.7510,1.0,23.823,1111122 
COMPS,ioos:station:USF.COMPS:EGK:1,2009-08-01T01:48:00Z,27.6010,-82.7510,1.0,24.082,1111122 
COMPS,ioos:station:USF.COMPS:EGK:1,2009-08-01T01:54:00Z,27.6010,-82.7510,1.0,24.237,1111122 
COMPS,ioos:station:USF.COMPS:EGK:1,2009-08-01T02:00:00Z,27.6010,-82.7510,1.0,24.254,1111122 
COMPS,ioos:station:USF.COMPS:EGK:1,2009-08-01T02:06:00Z,27.6010,-82.7510,1.0,24.218,1111122 
COMPS,ioos:station:USF.COMPS:EGK:1,2009-08-01T02:12:00Z,27.6010,-82.7510,1.0,24.251,1111122 
COMPS,ioos:station:USF.COMPS:EGK:1,2009-08-01T02:18:00Z,27.6010,-82.7510,1.0,24.357,1111122 
COMPS,ioos:station:USF.COMPS:EGK:1,2009-08-01T02:24:00Z,27.6010,-82.7510,1.0,24.398,1111122 
COMPS,ioos:station:USF.COMPS:EGK:1,2009-08-01T02:30:00Z,27.6010,-82.7510,1.0,24.094,1111122 
COMPS,ioos:station:USF.COMPS:EGK:1,2009-08-01T02:36:00Z,27.6010,-82.7510,1.0,24.398,1111122 
COMPS,ioos:station:USF.COMPS:EGK:1,2009-08-01T02:42:00Z,27.6010,-82.7510,1.0,24.31,1111122 
COMPS,ioos:station:USF.COMPS:EGK:1,2009-08-01T02:48:00Z,27.6010,-82.7510,1.0,24.436,1111122 
COMPS,ioos:station:USF.COMPS:EGK:1,2009-08-01T02:54:00Z,27.6010,-82.7510,1.0,24.459,1111122 
COMPS,ioos:station:USF.COMPS:EGK:1,2009-08-01T03:00:00Z,27.6010,-82.7510,1.0,24.389,1111122 
COMPS,ioos:station:USF.COMPS:EGK:1,2009-08-01T03:06:00Z,27.6010,-82.7510,1.0,24.349,1111122 
COMPS,ioos:station:USF.COMPS:EGK:1,2009-08-01T03:12:00Z,27.6010,-82.7510,1.0,24.444,1111122 
COMPS,ioos:station:USF.COMPS:EGK:1,2009-08-01T03:18:00Z,27.6010,-82.7510,1.0,24.297,1111122 
COMPS,ioos:station:USF.COMPS:EGK:1,2009-08-01T03:24:00Z,27.6010,-82.7510,1.0,24.27,1111122 
COMPS,ioos:station:USF.COMPS:EGK:1,2009-08-01T03:30:00Z,27.6010,-82.7510,1.0,24.402,1111122 
COMPS,ioos:station:USF.COMPS:EGK:1,2009-08-01T03:36:00Z,27.6010,-82.7510,1.0,23.993,1111122 
COMPS,ioos:station:USF.COMPS:EGK:1,2009-08-01T03:42:00Z,27.6010,-82.7510,1.0,24.428,1111122 
COMPS,ioos:station:USF.COMPS:EGK:1,2009-08-01T03:48:00Z,27.6010,-82.7510,1.0,24.421,1111122 
COMPS,ioos:station:USF.COMPS:EGK:1,2009-08-01T03:54:00Z,27.6010,-82.7510,1.0,24.012,1111122 
COMPS,ioos:station:USF.COMPS:EGK:1,2009-08-01T04:00:00Z,27.6010,-82.7510,1.0,24.325,1111122 
COMPS,ioos:station:USF.COMPS:EGK:1,2009-08-01T04:06:00Z,27.6010,-82.7510,1.0,24.409,1111122 
COMPS,ioos:station:USF.COMPS:EGK:1,2009-08-01T04:12:00Z,27.6010,-82.7510,1.0,24.486,1111122 
COMPS,ioos:station:USF.COMPS:EGK:1,2009-08-01T04:18:00Z,27.6010,-82.7510,1.0,24.398,1111122 
COMPS,ioos:station:USF.COMPS:EGK:1,2009-08-01T04:24:00Z,27.6010,-82.7510,1.0,24.416,1111122 
COMPS,ioos:station:USF.COMPS:EGK:1,2009-08-01T04:30:00Z,27.6010,-82.7510,1.0,24.061,1111122 
COMPS,ioos:station:USF.COMPS:EGK:1,2009-08-01T04:36:00Z,27.6010,-82.7510,1.0,24.465,1111122 
COMPS,ioos:station:USF.COMPS:EGK:1,2009-08-01T04:42:00Z,27.6010,-82.7510,1.0,24.13,1111122 
COMPS,ioos:station:USF.COMPS:EGK:1,2009-08-01T04:48:00Z,27.6010,-82.7510,1.0,24.16,1111122 
COMPS,ioos:station:USF.COMPS:EGK:1,2009-08-01T04:54:00Z,27.6010,-82.7510,1.0,24.338,1111122 
COMPS,ioos:station:USF.COMPS:EGK:1,2009-08-01T05:00:00Z,27.6010,-82.7510,1.0,24.274,1111122 
COMPS,ioos:station:USF.COMPS:EGK:1,2009-08-01T05:06:00Z,27.6010,-82.7510,1.0,24.166,1111122 
COMPS,ioos:station:USF.COMPS:EGK:1,2009-08-01T05:12:00Z,27.6010,-82.7510,1.0,24.042,1111122 
COMPS,ioos:station:USF.COMPS:EGK:1,2009-08-01T05:18:00Z,27.6010,-82.7510,1.0,23.74,1111122 
COMPS,ioos:station:USF.COMPS:EGK:1,2009-08-01T05:24:00Z,27.6010,-82.7510,1.0,24.113,1111122 
COMPS,ioos:station:USF.COMPS:EGK:1,2009-08-01T05:30:00Z,27.6010,-82.7510,1.0,24.043,1111122 
COMPS,ioos:station:USF.COMPS:EGK:1,2009-08-01T05:36:00Z,27.6010,-82.7510,1.0,23.487,1111122 
COMPS,ioos:station:USF.COMPS:EGK:1,2009-08-01T05:42:00Z,27.6010,-82.7510,1.0,23.751,1111122 
COMPS,ioos:station:USF.COMPS:EGK:1,2009-08-01T05:48:00Z,27.6010,-82.7510,1.0,23.781,1111122 
COMPS,ioos:station:USF.COMPS:EGK:1,2009-08-01T05:54:00Z,27.6010,-82.7510,1.0,23.645,1111122 
COMPS,ioos:station:USF.COMPS:EGK:1,2009-08-01T06:00:00Z,27.6010,-82.7510,1.0,23.847,1111122 
COMPS,ioos:station:USF.COMPS:EGK:1,2009-08-01T06:06:00Z,27.6010,-82.7510,1.0,23.917,1111122 
COMPS,ioos:station:USF.COMPS:EGK:1,2009-08-01T06:12:00Z,27.6010,-82.7510,1.0,23.53,1111122 
COMPS,ioos:station:USF.COMPS:EGK:1,2009-08-01T06:18:00Z,27.6010,-82.7510,1.0,23.704,1111122 
COMPS,ioos:station:USF.COMPS:EGK:1,2009-08-01T06:24:00Z,27.6010,-82.7510,1.0,23.7,1111122 
COMPS,ioos:station:USF.COMPS:EGK:1,2009-08-01T06:30:00Z,27.6010,-82.7510,1.0,23.72,1111122 
COMPS,ioos:station:USF.COMPS:EGK:1,2009-08-01T06:36:00Z,27.6010,-82.7510,1.0,23.788,1111122 
COMPS,ioos:station:USF.COMPS:EGK:1,2009-08-01T06:42:00Z,27.6010,-82.7510,1.0,23.474,1111122 
COMPS,ioos:station:USF.COMPS:EGK:1,2009-08-01T06:48:00Z,27.6010,-82.7510,1.0,23.787,1111122 
COMPS,ioos:station:USF.COMPS:EGK:1,2009-08-01T06:54:00Z,27.6010,-82.7510,1.0,24.026,1111122 
COMPS,ioos:station:USF.COMPS:EGK:1,2009-08-01T07:00:00Z,27.6010,-82.7510,1.0,23.79,1111122 
COMPS,ioos:station:USF.COMPS:EGK:1,2009-08-01T07:06:00Z,27.6010,-82.7510,1.0,23.174,1111122 
COMPS,ioos:station:USF.COMPS:EGK:1,2009-08-01T07:12:00Z,27.6010,-82.7510,1.0,22.535,1111122 
COMPS,ioos:station:USF.COMPS:EGK:1,2009-08-01T07:18:00Z,27.6010,-82.7510,1.0,22.614,1111122 
COMPS,ioos:station:USF.COMPS:EGK:1,2009-08-01T07:24:00Z,27.6010,-82.7510,1.0,23.649,1111122 
COMPS,ioos:station:USF.COMPS:EGK:1,2009-08-01T07:30:00Z,27.6010,-82.7510,1.0,23.695,1111122 
COMPS,ioos:station:USF.COMPS:EGK:1,2009-08-01T07:36:00Z,27.6010,-82.7510,1.0,23.689,1111122 
COMPS,ioos:station:USF.COMPS:EGK:1,2009-08-01T07:42:00Z,27.6010,-82.7510,1.0,23.787,1111122 
COMPS,ioos:station:USF.COMPS:EGK:1,2009-08-01T07:48:00Z,27.6010,-82.7510,1.0,23.251,1111122 
COMPS,ioos:station:USF.COMPS:EGK:1,2009-08-01T07:54:00Z,27.6010,-82.7510,1.0,23.493,1111122 
COMPS,ioos:station:USF.COMPS:EGK:1,2009-08-01T08:00:00Z,27.6010,-82.7510,1.0,24.101,1111122 
COMPS,ioos:station:USF.COMPS:EGK:1,2009-08-01T08:06:00Z,27.6010,-82.7510,1.0,23.901,1111122 
COMPS,ioos:station:USF.COMPS:EGK:1,2009-08-01T08:12:00Z,27.6010,-82.7510,1.0,24.152,1111122 
COMPS,ioos:station:USF.COMPS:EGK:1,2009-08-01T08:18:00Z,27.6010,-82.7510,1.0,23.253,1111122 
COMPS,ioos:station:USF.COMPS:EGK:1,2009-08-01T08:24:00Z,27.6010,-82.7510,1.0,23.171,1111122 
COMPS,ioos:station:USF.COMPS:EGK:1,2009-08-01T08:30:00Z,27.6010,-82.7510,1.0,23.668,1111122 
COMPS,ioos:station:USF.COMPS:EGK:1,2009-08-01T08:36:00Z,27.6010,-82.7510,1.0,24.417,1111122 
COMPS,ioos:station:USF.COMPS:EGK:1,2009-08-01T08:42:00Z,27.6010,-82.7510,1.0,23.593,1111122 
COMPS,ioos:station:USF.COMPS:EGK:1,2009-08-01T08:48:00Z,27.6010,-82.7510,1.0,23.504,1111122 
COMPS,ioos:station:USF.COMPS:EGK:1,2009-08-01T08:54:00Z,27.6010,-82.7510,1.0,23.539,1111122 
COMPS,ioos:station:USF.COMPS:EGK:1,2009-08-01T09:00:00Z,27.6010,-82.7510,1.0,23.259,1111122 
COMPS,ioos:station:USF.COMPS:EGK:1,2009-08-01T09:06:00Z,27.6010,-82.7510,1.0,23.005,1111122 
COMPS,ioos:station:USF.COMPS:EGK:1,2009-08-01T09:12:00Z,27.6010,-82.7510,1.0,23.362,1111122 
COMPS,ioos:station:USF.COMPS:EGK:1,2009-08-01T09:18:00Z,27.6010,-82.7510,1.0,23.559,1111122 
COMPS,ioos:station:USF.COMPS:EGK:1,2009-08-01T09:24:00Z,27.6010,-82.7510,1.0,23.313,1111122 
COMPS,ioos:station:USF.COMPS:EGK:1,2009-08-01T09:30:00Z,27.6010,-82.7510,1.0,23.776,1111122 
COMPS,ioos:station:USF.COMPS:EGK:1,2009-08-01T09:36:00Z,27.6010,-82.7510,1.0,23.754,1111122 
COMPS,ioos:station:USF.COMPS:EGK:1,2009-08-01T09:42:00Z,27.6010,-82.7510,1.0,23.755,1111122 
COMPS,ioos:station:USF.COMPS:EGK:1,2009-08-01T09:48:00Z,27.6010,-82.7510,1.0,23.605,1111122 
COMPS,ioos:station:USF.COMPS:EGK:1,2009-08-01T09:54:00Z,27.6010,-82.7510,1.0,23.496,1111122 
COMPS,ioos:station:USF.COMPS:EGK:1,2009-08-01T10:00:00Z,27.6010,-82.7510,1.0,23.284,1111122 
COMPS,ioos:station:USF.COMPS:EGK:1,2009-08-01T10:06:00Z,27.6010,-82.7510,1.0,23.604,1111122 
COMPS,ioos:station:USF.COMPS:EGK:1,2009-08-01T10:12:00Z,27.6010,-82.7510,1.0,23.62,1111122 
COMPS,ioos:station:USF.COMPS:EGK:1,2009-08-01T10:18:00Z,27.6010,-82.7510,1.0,23.74,1111122 
COMPS,ioos:station:USF.COMPS:EGK:1,2009-08-01T10:24:00Z,27.6010,-82.7510,1.0,24.42,1111122 
COMPS,ioos:station:USF.COMPS:EGK:1,2009-08-01T10:30:00Z,27.6010,-82.7510,1.0,24.168,1111122 
COMPS,ioos:station:USF.COMPS:EGK:1,2009-08-01T10:36:00Z,27.6010,-82.7510,1.0,23.663,1111122 
COMPS,ioos:station:USF.COMPS:EGK:1,2009-08-01T10:42:00Z,27.6010,-82.7510,1.0,23.594,1111122 
COMPS,ioos:station:USF.COMPS:EGK:1,2009-08-01T10:48:00Z,27.6010,-82.7510,1.0,23.344,1111122 
COMPS,ioos:station:USF.COMPS:EGK:1,2009-08-01T10:54:00Z,27.6010,-82.7510,1.0,23.402,1111122 
COMPS,ioos:station:USF.COMPS:EGK:1,2009-08-01T11:00:00Z,27.6010,-82.7510,1.0,22.945,1111122 
COMPS,ioos:station:USF.COMPS:EGK:1,2009-08-01T11:06:00Z,27.6010,-82.7510,1.0,22.723,1111122 
COMPS,ioos:station:USF.COMPS:EGK:1,2009-08-01T11:12:00Z,27.6010,-82.7510,1.0,22.77,1111122 
COMPS,ioos:station:USF.COMPS:EGK:1,2009-08-01T11:18:00Z,27.6010,-82.7510,1.0,23.126,1111122 
COMPS,ioos:station:USF.COMPS:EGK:1,2009-08-01T11:24:00Z,27.6010,-82.7510,1.0,24.636,1111122 
COMPS,ioos:station:USF.COMPS:EGK:1,2009-08-01T11:30:00Z,27.6010,-82.7510,1.0,24.867,1111122 
COMPS,ioos:station:USF.COMPS:EGK:1,2009-08-01T11:36:00Z,27.6010,-82.7510,1.0,24.357,1111122 
COMPS,ioos:station:USF.COMPS:EGK:1,2009-08-01T11:42:00Z,27.6010,-82.7510,1.0,24.631,1111122 
COMPS,ioos:station:USF.COMPS:EGK:1,2009-08-01T11:48:00Z,27.6010,-82.7510,1.0,24.677,1111122 
COMPS,ioos:station:USF.COMPS:EGK:1,2009-08-01T11:54:00Z,27.6010,-82.7510,1.0,24.616,1111122 
COMPS,ioos:station:USF.COMPS:EGK:1,2009-08-01T12:00:00Z,27.6010,-82.7510,1.0,24.285,1111122 
COMPS,ioos:station:USF.COMPS:EGK:1,2009-08-01T12:06:00Z,27.6010,-82.7510,1.0,24.4,1111122 
COMPS,ioos:station:USF.COMPS:EGK:1,2009-08-01T12:12:00Z,27.6010,-82.7510,1.0,24.591,1111122 
COMPS,ioos:station:USF.COMPS:EGK:1,2009-08-01T12:18:00Z,27.6010,-82.7510,1.0,24.762,1111122 
COMPS,ioos:station:USF.COMPS:EGK:1,2009-08-01T12:24:00Z,27.6010,-82.7510,1.0,24.514,1111122 
COMPS,ioos:station:USF.COMPS:EGK:1,2009-08-01T12:30:00Z,27.6010,-82.7510,1.0,24.178,1111122 
COMPS,ioos:station:USF.COMPS:EGK:1,2009-08-01T12:36:00Z,27.6010,-82.7510,1.0,24.515,1111122 
COMPS,ioos:station:USF.COMPS:EGK:1,2009-08-01T12:42:00Z,27.6010,-82.7510,1.0,24.749,1111122 
COMPS,ioos:station:USF.COMPS:EGK:1,2009-08-01T12:48:00Z,27.6010,-82.7510,1.0,24.908,1111122 
COMPS,ioos:station:USF.COMPS:EGK:1,2009-08-01T12:54:00Z,27.6010,-82.7510,1.0,24.783,1111122 
COMPS,ioos:station:USF.COMPS:EGK:1,2009-08-01T13:00:00Z,27.6010,-82.7510,1.0,24.463,1111122 
COMPS,ioos:station:USF.COMPS:EGK:1,2009-08-01T13:06:00Z,27.6010,-82.7510,1.0,24.187,1111122 
COMPS,ioos:station:USF.COMPS:EGK:1,2009-08-01T13:12:00Z,27.6010,-82.7510,1.0,24.266,1111122 
COMPS,ioos:station:USF.COMPS:EGK:1,2009-08-01T13:18:00Z,27.6010,-82.7510,1.0,24.254,1111122 
COMPS,ioos:station:USF.COMPS:EGK:1,2009-08-01T13:24:00Z,27.6010,-82.7510,1.0,24.528,1111122 
COMPS,ioos:station:USF.COMPS:EGK:1,2009-08-01T13:30:00Z,27.6010,-82.7510,1.0,24.382,1111122 
COMPS,ioos:station:USF.COMPS:EGK:1,2009-08-01T13:36:00Z,27.6010,-82.7510,1.0,24.232,1111122 
COMPS,ioos:station:USF.COMPS:EGK:1,2009-08-01T13:42:00Z,27.6010,-82.7510,1.0,24.307,1111122 
COMPS,ioos:station:USF.COMPS:EGK:1,2009-08-01T13:48:00Z,27.6010,-82.7510,1.0,24.532,1111122 
COMPS,ioos:station:USF.COMPS:EGK:1,2009-08-01T13:54:00Z,27.6010,-82.7510,1.0,24.519,1111122 
COMPS,ioos:station:USF.COMPS:EGK:1,2009-08-01T14:00:00Z,27.6010,-82.7510,1.0,24.561,1111122 
COMPS,ioos:station:USF.COMPS:EGK:1,2009-08-01T14:06:00Z,27.6010,-82.7510,1.0,24.549,1111122 
COMPS,ioos:station:USF.COMPS:EGK:1,2009-08-01T14:12:00Z,27.6010,-82.7510,1.0,24.488,1111122 
COMPS,ioos:station:USF.COMPS:EGK:1,2009-08-01T14:18:00Z,27.6010,-82.7510,1.0,24.463,1111122 
COMPS,ioos:station:USF.COMPS:EGK:1,2009-08-01T14:24:00Z,27.6010,-82.7510,1.0,24.382,1111122 
COMPS,ioos:station:USF.COMPS:EGK:1,2009-08-01T14:30:00Z,27.6010,-82.7510,1.0,23.904,1111122 
COMPS,ioos:station:USF.COMPS:EGK:1,2009-08-01T14:36:00Z,27.6010,-82.7510,1.0,23.778,1111122 
COMPS,ioos:station:USF.COMPS:EGK:1,2009-08-01T14:42:00Z,27.6010,-82.7510,1.0,23.828,1111122 
COMPS,ioos:station:USF.COMPS:EGK:1,2009-08-01T14:48:00Z,27.6010,-82.7510,1.0,23.81,1111122 
COMPS,ioos:station:USF.COMPS:EGK:1,2009-08-01T14:54:00Z,27.6010,-82.7510,1.0,24.068,1111122 
COMPS,ioos:station:USF.COMPS:EGK:1,2009-08-01T15:00:00Z,27.6010,-82.7510,1.0,24.114,1111122 
COMPS,ioos:station:USF.COMPS:EGK:1,2009-08-01T15:06:00Z,27.6010,-82.7510,1.0,24.107,1111122 
COMPS,ioos:station:USF.COMPS:EGK:1,2009-08-01T15:12:00Z,27.6010,-82.7510,1.0,24.024,1111122 
COMPS,ioos:station:USF.COMPS:EGK:1,2009-08-01T15:18:00Z,27.6010,-82.7510,1.0,24.121,1111122 
COMPS,ioos:station:USF.COMPS:EGK:1,2009-08-01T15:24:00Z,27.6010,-82.7510,1.0,24.123,1111122 
COMPS,ioos:station:USF.COMPS:EGK:1,2009-08-01T15:30:00Z,27.6010,-82.7510,1.0,24.224,1111122 
COMPS,ioos:station:USF.COMPS:EGK:1,2009-08-01T15:36:00Z,27.6010,-82.7510,1.0,24.173,1111122 
COMPS,ioos:station:USF.COMPS:EGK:1,2009-08-01T15:42:00Z,27.6010,-82.7510,1.0,24.134,1111122 
COMPS,ioos:station:USF.COMPS:EGK:1,2009-08-01T15:48:00Z,27.6010,-82.7510,1.0,24.303,1111122 
COMPS,ioos:station:USF.COMPS:EGK:1,2009-08-01T15:54:00Z,27.6010,-82.7510,1.0,24.312,1111122 
COMPS,ioos:station:USF.COMPS:EGK:1,2009-08-01T16:00:00Z,27.6010,-82.7510,1.0,24.201,1111122 
COMPS,ioos:station:USF.COMPS:EGK:1,2009-08-01T16:06:00Z,27.6010,-82.7510,1.0,24.135,1111122 
COMPS,ioos:station:USF.COMPS:EGK:1,2009-08-01T16:12:00Z,27.6010,-82.7510,1.0,24.075,1111122 
COMPS,ioos:station:USF.COMPS:EGK:1,2009-08-01T16:18:00Z,27.6010,-82.7510,1.0,24.225,1111122 
COMPS,ioos:station:USF.COMPS:EGK:1,2009-08-01T16:24:00Z,27.6010,-82.7510,1.0,24.142,1111122 
COMPS,ioos:station:USF.COMPS:EGK:1,2009-08-01T16:30:00Z,27.6010,-82.7510,1.0,24.112,1111122 
COMPS,ioos:station:USF.COMPS:EGK:1,2009-08-01T16:36:00Z,27.6010,-82.7510,1.0,23.916,1111122 
COMPS,ioos:station:USF.COMPS:EGK:1,2009-08-01T16:42:00Z,27.6010,-82.7510,1.0,22.659,1111122 
COMPS,ioos:station:USF.COMPS:EGK:1,2009-08-01T16:48:00Z,27.6010,-82.7510,1.0,23.061,1111122 
COMPS,ioos:station:USF.COMPS:EGK:1,2009-08-01T16:54:00Z,27.6010,-82.7510,1.0,23.068,1111122 
COMPS,ioos:station:USF.COMPS:EGK:1,2009-08-01T17:00:00Z,27.6010,-82.7510,1.0,22.916,1111122 
COMPS,ioos:station:USF.COMPS:EGK:1,2009-08-01T17:06:00Z,27.6010,-82.7510,1.0,22.924,1111122 
COMPS,ioos:station:USF.COMPS:EGK:1,2009-08-01T17:12:00Z,27.6010,-82.7510,1.0,22.771,1111122 
COMPS,ioos:station:USF.COMPS:EGK:1,2009-08-01T17:18:00Z,27.6010,-82.7510,1.0,22.389,1111122 
COMPS,ioos:station:USF.COMPS:EGK:1,2009-08-01T17:24:00Z,27.6010,-82.7510,1.0,22.369,1111122 
COMPS,ioos:station:USF.COMPS:EGK:1,2009-08-01T17:30:00Z,27.6010,-82.7510,1.0,22.512,1111122 
COMPS,ioos:station:USF.COMPS:EGK:1,2009-08-01T17:36:00Z,27.6010,-82.7510,1.0,22.543,1111122 
COMPS,ioos:station:USF.COMPS:EGK:1,2009-08-01T17:42:00Z,27.6010,-82.7510,1.0,22.533,1111122 
COMPS,ioos:station:USF.COMPS:EGK:1,2009-08-01T17:48:00Z,27.6010,-82.7510,1.0,22.809,1111122 
COMPS,ioos:station:USF.COMPS:EGK:1,2009-08-01T17:54:00Z,27.6010,-82.7510,1.0,23.109,1111122 
COMPS,ioos:station:USF.COMPS:EGK:1,2009-08-01T18:00:00Z,27.6010,-82.7510,1.0,24.149,1111122 
COMPS,ioos:station:USF.COMPS:EGK:1,2009-08-01T18:06:00Z,27.6010,-82.7510,1.0,24.665,1111122 
COMPS,ioos:station:USF.COMPS:EGK:1,2009-08-01T18:12:00Z,27.6010,-82.7510,1.0,24.664,1111122 
COMPS,ioos:station:USF.COMPS:EGK:1,2009-08-01T18:18:00Z,27.6010,-82.7510,1.0,24.686,1111122 
COMPS,ioos:station:USF.COMPS:EGK:1,2009-08-01T18:24:00Z,27.6010,-82.7510,1.0,24.678,1111122 
COMPS,ioos:station:USF.COMPS:EGK:1,2009-08-01T18:30:00Z,27.6010,-82.7510,1.0,24.692,1111122 
COMPS,ioos:station:USF.COMPS:EGK:1,2009-08-01T18:36:00Z,27.6010,-82.7510,1.0,24.671,1111122 
COMPS,ioos:station:USF.COMPS:EGK:1,2009-08-01T18:42:00Z,27.6010,-82.7510,1.0,24.662,1111122 
COMPS,ioos:station:USF.COMPS:EGK:1,2009-08-01T18:48:00Z,27.6010,-82.7510,1.0,24.739,1111122 
COMPS,ioos:station:USF.COMPS:EGK:1,2009-08-01T18:54:00Z,27.6010,-82.7510,1.0,24.687,1111122 
COMPS,ioos:station:USF.COMPS:EGK:1,2009-08-01T19:00:00Z,27.6010,-82.7510,1.0,24.656,1111122 
COMPS,ioos:station:USF.COMPS:EGK:1,2009-08-01T19:06:00Z,27.6010,-82.7510,1.0,24.669,1111122 
COMPS,ioos:station:USF.COMPS:EGK:1,2009-08-01T19:12:00Z,27.6010,-82.7510,1.0,24.645,1111122 
COMPS,ioos:station:USF.COMPS:EGK:1,2009-08-01T19:18:00Z,27.6010,-82.7510,1.0,24.636,1111122 
COMPS,ioos:station:USF.COMPS:EGK:1,2009-08-01T19:24:00Z,27.6010,-82.7510,1.0,24.639,1111122 
COMPS,ioos:station:USF.COMPS:EGK:1,2009-08-01T19:30:00Z,27.6010,-82.7510,1.0,24.635,1111122 
COMPS,ioos:station:USF.COMPS:EGK:1,2009-08-01T19:36:00Z,27.6010,-82.7510,1.0,24.643,1111122 
COMPS,ioos:station:USF.COMPS:EGK:1,2009-08-01T19:42:00Z,27.6010,-82.7510,1.0,24.715,1111122 
COMPS,ioos:station:USF.COMPS:EGK:1,2009-08-01T19:48:00Z,27.6010,-82.7510,1.0,24.78,1111122 
COMPS,ioos:station:USF.COMPS:EGK:1,2009-08-01T19:54:00Z,27.6010,-82.7510,1.0,24.719,1111122 
COMPS,ioos:station:USF.COMPS:EGK:1,2009-08-01T20:00:00Z,27.6010,-82.7510,1.0,24.677,1111122 
COMPS,ioos:station:USF.COMPS:EGK:1,2009-08-01T20:06:00Z,27.6010,-82.7510,1.0,24.673,1111122 
COMPS,ioos:station:USF.COMPS:EGK:1,2009-08-01T20:12:00Z,27.6010,-82.7510,1.0,24.661,1111122 
COMPS,ioos:station:USF.COMPS:EGK:1,2009-08-01T20:18:00Z,27.6010,-82.7510,1.0,24.654,1111122 
COMPS,ioos:station:USF.COMPS:EGK:1,2009-08-01T20:24:00Z,27.6010,-82.7510,1.0,24.674,1111122 
COMPS,ioos:station:USF.COMPS:EGK:1,2009-08-01T20:30:00Z,27.6010,-82.7510,1.0,24.633,1111122 
COMPS,ioos:station:USF.COMPS:EGK:1,2009-08-01T20:36:00Z,27.6010,-82.7510,1.0,24.64,1111122 
COMPS,ioos:station:USF.COMPS:EGK:1,2009-08-01T20:42:00Z,27.6010,-82.7510,1.0,24.609,1111122 
COMPS,ioos:station:USF.COMPS:EGK:1,2009-08-01T20:48:00Z,27.6010,-82.7510,1.0,24.597,1111122 
COMPS,ioos:station:USF.COMPS:EGK:1,2009-08-01T20:54:00Z,27.6010,-82.7510,1.0,24.6,1111122 
COMPS,ioos:station:USF.COMPS:EGK:1,2009-08-01T21:00:00Z,27.6010,-82.7510,1.0,24.531,1111122 
COMPS,ioos:station:USF.COMPS:EGK:1,2009-08-01T21:06:00Z,27.6010,-82.7510,1.0,24.493,1111122 
COMPS,ioos:station:USF.COMPS:EGK:1,2009-08-01T21:12:00Z,27.6010,-82.7510,1.0,24.363,1111122 
COMPS,ioos:station:USF.COMPS:EGK:1,2009-08-01T21:18:00Z,27.6010,-82.7510,1.0,24.349,1111122 
COMPS,ioos:station:USF.COMPS:EGK:1,2009-08-01T21:24:00Z,27.6010,-82.7510,1.0,24.443,1111122 
COMPS,ioos:station:USF.COMPS:EGK:1,2009-08-01T21:30:00Z,27.6010,-82.7510,1.0,24.403,1111122 
COMPS,ioos:station:USF.COMPS:EGK:1,2009-08-01T21:36:00Z,27.6010,-82.7510,1.0,24.351,1111122 
COMPS,ioos:station:USF.COMPS:EGK:1,2009-08-01T21:42:00Z,27.6010,-82.7510,1.0,24.296,1111122 
COMPS,ioos:station:USF.COMPS:EGK:1,2009-08-01T21:48:00Z,27.6010,-82.7510,1.0,24.219,1111122 
COMPS,ioos:station:USF.COMPS:EGK:1,2009-08-01T21:54:00Z,27.6010,-82.7510,1.0,24.232,1111122 
COMPS,ioos:station:USF.COMPS:EGK:1,2009-08-01T22:00:00Z,27.6010,-82.7510,1.0,23.94,1111122 
COMPS,ioos:station:USF.COMPS:EGK:1,2009-08-01T22:06:00Z,27.6010,-82.7510,1.0,24.211,1111122 
COMPS,ioos:station:USF.COMPS:EGK:1,2009-08-01T22:12:00Z,27.6010,-82.7510,1.0,23.973,1111122 
COMPS,ioos:station:USF.COMPS:EGK:1,2009-08-01T22:18:00Z,27.6010,-82.7510,1.0,24.133,1111122 
COMPS,ioos:station:USF.COMPS:EGK:1,2009-08-01T22:24:00Z,27.6010,-82.7510,1.0,23.737,1111122 
COMPS,ioos:station:USF.COMPS:EGK:1,2009-08-01T22:30:00Z,27.6010,-82.7510,1.0,23.465,1111122 
COMPS,ioos:station:USF.COMPS:EGK:1,2009-08-01T22:36:00Z,27.6010,-82.7510,1.0,23.344,1111122 
COMPS,ioos:station:USF.COMPS:EGK:1,2009-08-01T22:42:00Z,27.6010,-82.7510,1.0,23.254,1111122 
COMPS,ioos:station:USF.COMPS:EGK:1,2009-08-01T22:48:00Z,27.6010,-82.7510,1.0,23.18,1111122 
COMPS,ioos:station:USF.COMPS:EGK:1,2009-08-01T22:54:00Z,27.6010,-82.7510,1.0,23.195,1111122 
COMPS,ioos:station:USF.COMPS:EGK:1,2009-08-01T23:00:00Z,27.6010,-82.7510,1.0,23.096,1111122 
COMPS,ioos:station:USF.COMPS:EGK:1,2009-08-01T23:06:00Z,27.6010,-82.7510,1.0,23.05,1111122 
COMPS,ioos:station:USF.COMPS:EGK:1,2009-08-01T23:12:00Z,27.6010,-82.7510,1.0,22.97,1111122 
COMPS,ioos:station:USF.COMPS:EGK:1,2009-08-01T23:18:00Z,27.6010,-82.7510,1.0,22.945,1111122 
COMPS,ioos:station:USF.COMPS:EGK:1,2009-08-01T23:24:00Z,27.6010,-82.7510,1.0,22.987,1111122 
COMPS,ioos:station:USF.COMPS:EGK:1,2009-08-01T23:30:00Z,27.6010,-82.7510,1.0,22.985,1111122 
COMPS,ioos:station:USF.COMPS:EGK:1,2009-08-01T23:36:00Z,27.6010,-82.7510,1.0,22.634,1111122 
COMPS,ioos:station:USF.COMPS:EGK:1,2009-08-01T23:42:00Z,27.6010,-82.7510,1.0,23.05,1111122 
COMPS,ioos:station:USF.COMPS:EGK:1,2009-08-01T23:48:00Z,27.6010,-82.7510,1.0,23.067,1111122 
COMPS,ioos:station:USF.COMPS:EGK:1,2009-08-01T23:54:00Z,27.6010,-82.7510,1.0,23.212,1111122 
COMPS,ioos:station:USF.COMPS:EGK:1,2009-08-02T00:00:00Z,27.6010,-82.7510,1.0,23.33,1111122 
COMPS,ioos:station:USF.COMPS:EGK:1,2009-08-02T00:06:00Z,27.6010,-82.7510,1.0,23.16,1111122 
COMPS,ioos:station:USF.COMPS:EGK:1,2009-08-02T00:12:00Z,27.6010,-82.7510,1.0,23.205,1111122 
COMPS,ioos:station:USF.COMPS:EGK:1,2009-08-02T00:18:00Z,27.6010,-82.7510,1.0,23.186,1111122 
COMPS,ioos:station:USF.COMPS:EGK:1,2009-08-02T00:24:00Z,27.6010,-82.7510,1.0,23.068,1111122 
COMPS,ioos:station:USF.COMPS:EGK:1,2009-08-02T00:30:00Z,27.6010,-82.7510,1.0,23.065,1111122 
COMPS,ioos:station:USF.COMPS:EGK:1,2009-08-02T00:36:00Z,27.6010,-82.7510,1.0,23.062,1111122 
COMPS,ioos:station:USF.COMPS:EGK:1,2009-08-02T00:42:00Z,27.6010,-82.7510,1.0,23.017,1111122 
COMPS,ioos:station:USF.COMPS:EGK:1,2009-08-02T00:48:00Z,27.6010,-82.7510,1.0,22.433,1111122 
COMPS,ioos:station:USF.COMPS:EGK:1,2009-08-02T00:54:00Z,27.6010,-82.7510,1.0,22.277,1111122 
COMPS,ioos:station:USF.COMPS:EGK:1,2009-08-02T01:00:00Z,27.6010,-82.7510,1.0,22.937,1111122 
COMPS,ioos:station:USF.COMPS:EGK:1,2009-08-02T01:06:00Z,27.6010,-82.7510,1.0,23.259,1111122 
COMPS,ioos:station:USF.COMPS:EGK:1,2009-08-02T01:12:00Z,27.6010,-82.7510,1.0,22.977,1111122 
COMPS,ioos:station:USF.COMPS:EGK:1,2009-08-02T01:18:00Z,27.6010,-82.7510,1.0,23.222,1111122 
COMPS,ioos:station:USF.COMPS:EGK:1,2009-08-02T01:24:00Z,27.6010,-82.7510,1.0,22.905,1111122 
COMPS,ioos:station:USF.COMPS:EGK:1,2009-08-02T01:30:00Z,27.6010,-82.7510,1.0,22.414,1111122 
COMPS,ioos:station:USF.COMPS:EGK:1,2009-08-02T01:36:00Z,27.6010,-82.7510,1.0,22.938,1111122 